Погода в Ратламе

Индия     23˚20′11″N   75˚02′35″E
темп.,
°C
ветер,
м/с
пор.,
м/с
влажн.,
%
обл.,
%
осадки,
мм/ч
давл.,
гПа
погр.,
м
17 января, вс
вс1723:30+20˚в47510 0.0 1011118
02:30+18˚в47540 0.0 1010133
05:30+17˚в34600 0.0 101183
08:30+19˚в58520 0.0 1013246
11:30+28˚юв55370 0.0 1013806
14:30+31˚ю45320 0.0 10082141
17:30+28˚ю47400 0.0 1009178
20:30+24˚юв23480 0.0 101023
18 января, пн
пн1823:30+22˚юв22520 0.0 101123
02:30+21˚вюв12560 0.0 101123
05:30+19˚ююв116111 0.0 101123
08:30+21˚вюв22570 0.0 101383
11:30+28˚ююз23403 0.0 1013854
14:30+31˚зюз46333 0.0 10102383
17:30+28˚зсз33356 0.0 100977
20:30+23˚сз34320 0.0 101133
19 января, вт
вт1923:30+21˚вюв00330 0.0 101223
02:30+19˚ссз11364 0.0 101123
05:30+18˚св33398 0.0 101125
08:30+20˚всв23480 0.0 101488
11:30+28˚ю12260 0.0 1014773
14:30+30˚зюз45170 0.0 10101756
17:30+27˚зсз34220 0.0 101067
20:30+22˚сз23280 0.0 101223
20 января, ср
ср2023:30+20˚св23330 0.0 101226
02:30+17˚всв33500 0.0 101228
05:30+17˚в34520 0.0 101231
08:30+18˚в34490 0.0 1015104
11:30+26˚ссв11270 0.0 1015777
14:30+29˚зсз34170 0.0 10121527
17:30+27˚сз34230 0.0 101167
20:30+21˚с23310 0.0 101324
21 января, чт
чт2123:30+19˚всв34410 0.0 101440
02:30+17˚всв34480 0.0 101338
05:30+16˚в33510 0.0 101332
08:30+18˚всв35470 0.0 1015136
11:30+26˚вюв33290 0.0 1015685
14:30+29˚зюз11210 0.0 10121504
17:30+27˚сз01270 0.0 101124
20:30+21˚св23320 0.0 101323